START_TIME,STEP,MOV.,AL01,t_acc.,AL02,t_acc.,E37,t_acc.,H21,t_acc.
1980-11-15 06:00:22.880 ,2,0,1.,24.0,0.,24.0,0.,24.0,0.,24.0
1980-11-15 06:00:46.880 ,1,1,0.,24.0,0.,24.0,0.,24.0,0.,24.0
1980-11-15 06:01:10.880 ,1,0,0.,24.0,0.,24.0,1.,24.0,0.,24.0
1980-11-15 06:01:34.880 ,0,1,0.,24.0,0.,24.0,1.,24.0,0.,24.0
1980-11-15 06:01:58.880 ,0,0,0.,24.0,0.,24.0,1.,24.0,0.,24.0
1980-11-15 06:02:22.880 ,0,1,0.,24.0,0.,24.0,1.,24.0,0.,24.0
1980-11-15 06:02:46.880 ,0,0,0.,24.0,0.,24.0,0.,24.0,0.,24.0
1980-11-15 06:03:10.880 ,1,1,0.,24.0,0.,24.0,0.,24.0,0.,24.0
1980-11-15 06:03:34.880 ,1,0,0.,24.0,0.,24.0,0.,24.0,0.,24.0
1980-11-15 06:03:58.880 ,2,1,0.,24.0,0.,24.0,0.,24.0,0.,24.0
1980-11-15 06:04:22.880 ,2,0,0.,24.0,0.,24.0,0.,24.0,0.,24.0
1980-11-15 06:04:46.880 ,3,1,0.,24.0,0.,24.0,0.,24.0,0.,24.0
1980-11-15 06:05:10.880 ,3,0,1.,24.0,0.,24.0,1.,24.0,0.,24.0
1980-11-15 06:05:34.880 ,4,1,0.,24.0,0.,24.0,1.,24.0,0.,24.0
1980-11-15 06:05:58.880 ,4,0,0.,24.0,0.,24.0,0.,24.0,0.,24.0
1980-11-15 06:06:22.880 ,5,1,0.,24.0,0.,24.0,0.,24.0,0.,24.0
1980-11-15 06:06:46.880 ,5,0,0.,24.0,0.,24.0,0.,24.0,0.,24.0
1980-11-15 06:07:10.880 ,6,1,0.,24.0,0.,24.0,1.,24.0,0.,24.0
1980-11-15 06:07:34.880 ,6,0,0.,24.0,0.,24.0,0.,24.0,0.,24.0
1980-11-15 06:07:58.880 ,7,1,2.,24.0,0.,24.0,1.,24.0,0.,24.0
1980-11-15 06:08:22.880 ,7,0,10.,24.0,0.,24.0,0.,24.0,0.,24.0
1980-11-15 06:08:46.880 ,7,1,9.,24.0,0.,24.0,1.,24.0,0.,24.0
1980-11-15 06:09:10.880 ,7,0,7.,24.0,0.,24.0,0.,24.0,0.,24.0
1980-11-15 06:09:34.880 ,6,1,9.,24.0,0.,24.0,0.,24.0,0.,24.0
1980-11-15 06:09:58.880 ,6,0,0.,24.0,0.,24.0,0.,24.0,0.,24.0
1980-11-15 06:10:22.880 ,5,1,0.,24.0,0.,24.0,0.,24.0,0.,24.0
1980-11-15 06:10:46.880 ,5,0,0.,24.0,0.,24.0,0.,24.0,0.,24.0
1980-11-15 06:11:10.880 ,4,1,0.,24.0,0.,24.0,0.,24.0,0.,24.0
1980-11-15 06:11:34.880 ,4,0,0.,24.0,0.,24.0,2.,24.0,0.,24.0
1980-11-15 06:11:58.880 ,3,1,0.,24.0,0.,24.0,0.,24.0,0.,24.0
1980-11-15 06:12:22.880 ,3,0,0.,24.0,0.,24.0,0.,24.0,0.,24.0
1980-11-15 06:12:46.880 ,2,1,0.,24.0,0.,24.0,0.,24.0,0.,24.0
1980-11-15 06:13:10.880 ,2,0,0.,24.0,0.,24.0,1.,24.0,0.,24.0
1980-11-15 06:13:34.880 ,1,1,0.,24.0,0.,24.0,0.,24.0,0.,24.0
1980-11-15 06:13:58.880 ,1,0,0.,24.0,0.,24.0,0.,24.0,0.,24.0
1980-11-15 06:14:22.880 ,0,1,0.,24.0,1.,24.0,0.,24.0,0.,24.0
1980-11-15 06:14:46.880 ,0,0,0.,24.0,0.,24.0,0.,24.0,0.,24.0
1980-11-15 06:15:10.880 ,0,1,0.,24.0,0.,24.0,0.,24.0,0.,24.0
1980-11-15 06:15:34.880 ,0,0,0.,24.0,0.,24.0,0.,24.0,0.,24.0
1980-11-15 06:15:58.880 ,1,1,0.,24.0,0.,24.0,0.,24.0,0.,24.0
1980-11-15 06:16:22.880 ,1,0,0.,24.0,0.,24.0,0.,24.0,0.,24.0
1980-11-15 06:16:46.880 ,2,1,0.,24.0,0.,24.0,0.,24.0,0.,24.0
1980-11-15 06:17:10.880 ,2,0,0.,24.0,0.,24.0,1.,24.0,0.,24.0
1980-11-15 06:17:34.880 ,3,1,0.,24.0,0.,24.0,0.,24.0,0.,24.0
1980-11-15 06:17:58.880 ,3,0,0.,24.0,0.,24.0,1.,24.0,0.,24.0
1980-11-15 06:18:22.880 ,4,1,0.,24.0,0.,24.0,0.,24.0,0.,24.0
1980-11-15 06:18:46.880 ,4,0,0.,24.0,0.,24.0,1.,24.0,0.,24.0
1980-11-15 06:19:10.880 ,5,1,0.,24.0,0.,24.0,1.,24.0,0.,24.0
1980-11-15 06:19:34.880 ,5,0,0.,24.0,0.,24.0,1.,24.0,0.,24.0
1980-11-15 06:19:58.880 ,6,1,0.,24.0,0.,24.0,0.,24.0,0.,24.0
1980-11-15 06:20:22.880 ,6,0,0.,24.0,0.,24.0,1.,24.0,0.,24.0
1980-11-15 06:20:46.880 ,7,1,2.,24.0,0.,24.0,1.,24.0,0.,24.0
1980-11-15 06:21:10.880 ,7,0,14.,24.0,0.,24.0,0.,24.0,0.,24.0
1980-11-15 06:21:34.880 ,7,1,11.,24.0,0.,24.0,1.,24.0,0.,24.0
1980-11-15 06:21:58.880 ,7,0,14.,24.0,0.,24.0,0.,24.0,0.,24.0
1980-11-15 06:22:22.880 ,6,1,11.,24.0,0.,24.0,1.,24.0,0.,24.0
1980-11-15 06:22:46.880 ,6,0,0.,24.0,0.,24.0,0.,24.0,0.,24.0
1980-11-15 06:23:10.880 ,5,1,0.,24.0,0.,24.0,0.,24.0,0.,24.0
1980-11-15 06:23:34.880 ,5,0,0.,24.0,0.,24.0,0.,24.0,0.,24.0
1980-11-15 06:23:58.880 ,4,1,0.,24.0,0.,24.0,0.,24.0,0.,24.0
1980-11-15 06:24:22.880 ,4,0,0.,24.0,0.,24.0,3.,24.0,0.,24.0
1980-11-15 06:24:46.880 ,3,1,0.,24.0,0.,24.0,0.,24.0,0.,24.0
1980-11-15 06:25:10.880 ,3,0,0.,24.0,0.,24.0,0.,24.0,0.,24.0
1980-11-15 06:25:34.880 ,2,1,0.,24.0,0.,24.0,0.,24.0,0.,24.0
1980-11-15 06:25:58.880 ,2,0,0.,24.0,0.,24.0,2.,24.0,0.,24.0
1980-11-15 06:26:22.880 ,1,1,0.,24.0,0.,24.0,1.,24.0,0.,24.0
1980-11-15 06:26:46.880 ,1,0,0.,24.0,0.,24.0,0.,24.0,0.,24.0
1980-11-15 06:27:10.880 ,0,1,0.,24.0,0.,24.0,0.,24.0,0.,24.0
1980-11-15 06:27:34.880 ,0,0,0.,24.0,0.,24.0,1.,24.0,0.,24.0
1980-11-15 06:27:58.880 ,0,1,0.,24.0,0.,24.0,0.,24.0,0.,24.0
1980-11-15 06:28:22.880 ,0,0,0.,24.0,0.,24.0,0.,24.0,0.,24.0
1980-11-15 06:28:46.880 ,1,1,0.,24.0,0.,24.0,0.,24.0,0.,24.0
1980-11-15 06:29:10.880 ,1,0,0.,24.0,0.,24.0,1.,24.0,0.,24.0
1980-11-15 06:29:34.880 ,2,1,0.,24.0,0.,24.0,0.,24.0,0.,24.0
1980-11-15 06:29:58.880 ,2,0,0.,24.0,0.,24.0,0.,24.0,0.,24.0
1980-11-15 06:30:22.880 ,3,1,0.,24.0,0.,24.0,0.,24.0,0.,24.0
1980-11-15 06:30:46.880 ,3,0,0.,24.0,0.,24.0,2.,24.0,0.,24.0
1980-11-15 06:31:10.880 ,4,1,0.,24.0,0.,24.0,0.,24.0,0.,24.0
1980-11-15 06:31:34.880 ,4,0,0.,24.0,0.,24.0,0.,24.0,0.,24.0
1980-11-15 06:31:58.880 ,5,1,0.,24.0,0.,24.0,0.,24.0,0.,24.0
1980-11-15 06:32:22.880 ,5,0,0.,24.0,0.,24.0,0.,24.0,0.,24.0
1980-11-15 06:32:46.880 ,6,1,0.,24.0,0.,24.0,0.,24.0,0.,24.0
1980-11-15 06:33:10.880 ,6,0,0.,24.0,0.,24.0,0.,24.0,0.,24.0
1980-11-15 06:33:34.880 ,7,1,4.,24.0,0.,24.0,1.,24.0,0.,24.0
1980-11-15 06:33:58.880 ,7,0,11.,24.0,0.,24.0,0.,24.0,0.,24.0
1980-11-15 06:34:22.880 ,7,1,8.,24.0,0.,24.0,1.,24.0,0.,24.0
1980-11-15 06:34:46.880 ,7,0,10.,24.0,0.,24.0,0.,24.0,0.,24.0
1980-11-15 06:35:10.880 ,6,1,8.,24.0,0.,24.0,1.,24.0,0.,24.0
1980-11-15 06:35:34.880 ,6,0,0.,24.0,0.,24.0,0.,24.0,0.,24.0
1980-11-15 06:35:58.880 ,5,1,0.,24.0,0.,24.0,0.,24.0,0.,24.0
1980-11-15 06:36:22.880 ,5,0,0.,24.0,0.,24.0,0.,24.0,0.,24.0
1980-11-15 06:36:46.880 ,4,1,0.,24.0,0.,24.0,1.,24.0,0.,24.0
1980-11-15 06:37:10.880 ,4,0,0.,24.0,0.,24.0,0.,24.0,0.,24.0
1980-11-15 06:37:34.880 ,3,1,0.,24.0,0.,24.0,1.,24.0,0.,24.0
1980-11-15 06:37:58.880 ,3,0,0.,24.0,0.,24.0,0.,24.0,0.,24.0
1980-11-15 06:38:22.880 ,2,1,0.,24.0,0.,24.0,0.,24.0,0.,24.0
1980-11-15 06:38:46.880 ,2,0,0.,24.0,0.,24.0,0.,24.0,0.,24.0
1980-11-15 06:39:10.880 ,1,1,0.,24.0,0.,24.0,3.,24.0,0.,24.0
1980-11-15 06:39:34.880 ,1,0,0.,24.0,0.,24.0,0.,24.0,0.,24.0
1980-11-15 06:39:58.880 ,0,1,0.,24.0,0.,24.0,0.,24.0,0.,24.0
1980-11-15 06:40:22.880 ,0,0,0.,24.0,0.,24.0,0.,24.0,0.,24.0
1980-11-15 06:40:46.880 ,0,1,0.,24.0,0.,24.0,0.,24.0,0.,24.0
1980-11-15 06:41:10.880 ,0,0,0.,24.0,0.,24.0,1.,24.0,0.,24.0
1980-11-15 06:41:34.880 ,1,1,0.,24.0,0.,24.0,0.,24.0,0.,24.0
1980-11-15 06:41:58.880 ,1,0,0.,24.0,0.,24.0,1.,24.0,0.,24.0
1980-11-15 06:42:22.880 ,2,1,0.,24.0,0.,24.0,0.,24.0,0.,24.0
1980-11-15 06:42:46.880 ,2,0,0.,24.0,0.,24.0,0.,24.0,0.,24.0
1980-11-15 06:43:10.880 ,3,1,0.,24.0,0.,24.0,0.,24.0,0.,24.0
1980-11-15 06:43:34.880 ,3,0,0.,24.0,0.,24.0,1.,24.0,0.,24.0
1980-11-15 06:43:58.880 ,4,1,0.,24.0,0.,24.0,1.,24.0,0.,24.0
1980-11-15 06:44:22.880 ,4,0,0.,24.0,0.,24.0,0.,24.0,0.,24.0
1980-11-15 06:44:46.880 ,5,1,0.,24.0,0.,24.0,0.,24.0,0.,24.0
1980-11-15 06:45:10.880 ,5,0,0.,24.0,0.,24.0,0.,24.0,0.,24.0
1980-11-15 06:45:34.880 ,6,1,0.,24.0,0.,24.0,0.,24.0,0.,24.0
1980-11-15 06:45:58.880 ,6,0,0.,24.0,0.,24.0,0.,24.0,0.,24.0
1980-11-15 06:46:22.880 ,7,1,2.,24.0,0.,24.0,0.,24.0,0.,24.0
1980-11-15 06:46:46.880 ,7,0,9.,24.0,0.,24.0,0.,24.0,0.,24.0
1980-11-15 06:47:10.880 ,7,1,6.,24.0,0.,24.0,0.,24.0,0.,24.0
1980-11-15 06:47:34.880 ,7,0,7.,24.0,0.,24.0,0.,24.0,0.,24.0
1980-11-15 06:47:58.880 ,6,1,5.,24.0,0.,24.0,0.,24.0,0.,24.0
1980-11-15 06:48:22.880 ,6,0,0.,24.0,0.,24.0,0.,24.0,0.,24.0
1980-11-15 06:48:46.880 ,5,1,0.,24.0,0.,24.0,0.,24.0,0.,24.0
1980-11-15 06:49:10.880 ,5,0,0.,24.0,0.,24.0,0.,24.0,0.,24.0
1980-11-15 06:49:34.880 ,4,1,0.,24.0,0.,24.0,1.,24.0,0.,24.0
1980-11-15 06:49:58.880 ,4,0,0.,24.0,0.,24.0,1.,24.0,0.,24.0
1980-11-15 06:50:22.880 ,3,1,0.,24.0,0.,24.0,0.,24.0,0.,24.0
1980-11-15 06:50:46.880 ,3,0,0.,24.0,0.,24.0,0.,24.0,0.,24.0
1980-11-15 06:51:10.880 ,2,1,0.,24.0,0.,24.0,0.,24.0,0.,24.0
1980-11-15 06:51:34.880 ,2,0,0.,24.0,0.,24.0,0.,24.0,0.,24.0
1980-11-15 06:51:58.880 ,1,1,0.,24.0,0.,24.0,0.,24.0,0.,24.0
1980-11-15 06:52:22.880 ,1,0,0.,24.0,0.,24.0,0.,24.0,0.,24.0
1980-11-15 06:52:46.880 ,0,1,0.,24.0,0.,24.0,0.,24.0,0.,24.0
1980-11-15 06:53:10.880 ,0,0,0.,24.0,0.,24.0,0.,24.0,0.,24.0
1980-11-15 06:53:34.880 ,0,1,0.,24.0,0.,24.0,2.,24.0,0.,24.0
1980-11-15 06:53:58.880 ,0,0,0.,24.0,0.,24.0,0.,24.0,0.,24.0
1980-11-15 06:54:22.880 ,1,1,0.,24.0,0.,24.0,1.,24.0,0.,24.0
1980-11-15 06:54:46.880 ,1,0,0.,24.0,0.,24.0,0.,24.0,0.,24.0
1980-11-15 06:55:10.880 ,2,1,0.,24.0,0.,24.0,0.,24.0,0.,24.0
1980-11-15 06:55:34.880 ,2,0,0.,24.0,0.,24.0,1.,24.0,0.,24.0
1980-11-15 06:55:58.880 ,3,1,0.,24.0,0.,24.0,0.,24.0,0.,24.0
1980-11-15 06:56:22.880 ,3,0,0.,24.0,0.,24.0,0.,24.0,0.,24.0
1980-11-15 06:56:46.880 ,4,1,0.,24.0,0.,24.0,0.,24.0,0.,24.0
1980-11-15 06:57:10.880 ,4,0,0.,24.0,0.,24.0,0.,24.0,0.,24.0
1980-11-15 06:57:34.880 ,5,1,0.,24.0,0.,24.0,0.,24.0,0.,24.0
1980-11-15 06:57:58.880 ,0,0,0.,24.0,0.,24.0,1.,24.0,0.,24.0
1980-11-15 07:00:09.080 ,0,0,13.,24.0,0.,24.0,1.,24.0,0.,24.0
1980-11-15 07:00:22.880 ,0,0,9.,24.0,0.,24.0,0.,24.0,0.,24.0
1980-11-15 07:00:46.880 ,6,1,7.,24.0,0.,24.0,2.,24.0,0.,24.0
1980-11-15 07:01:10.880 ,6,0,0.,24.0,0.,24.0,3.,24.0,0.,24.0
1980-11-15 07:01:34.880 ,5,1,0.,24.0,0.,24.0,2.,24.0,0.,24.0
1980-11-15 07:01:58.880 ,5,0,0.,24.0,0.,24.0,1.,24.0,0.,24.0
1980-11-15 07:02:22.880 ,4,1,0.,24.0,0.,24.0,0.,24.0,0.,24.0
1980-11-15 07:02:46.880 ,4,0,0.,24.0,0.,24.0,2.,24.0,0.,24.0
1980-11-15 07:03:10.880 ,3,1,0.,24.0,0.,24.0,1.,24.0,0.,24.0
1980-11-15 07:03:34.880 ,3,0,0.,24.0,0.,24.0,0.,24.0,0.,24.0
1980-11-15 07:03:58.880 ,2,1,0.,24.0,0.,24.0,1.,24.0,0.,24.0
1980-11-15 07:04:22.880 ,2,0,0.,24.0,0.,24.0,0.,24.0,0.,24.0
1980-11-15 07:04:46.880 ,1,1,0.,24.0,0.,24.0,0.,24.0,0.,24.0
1980-11-15 07:05:10.880 ,1,0,0.,24.0,0.,24.0,1.,24.0,0.,24.0
1980-11-15 07:05:34.880 ,0,1,0.,24.0,0.,24.0,2.,24.0,0.,24.0
1980-11-15 07:05:58.880 ,0,0,0.,24.0,0.,24.0,0.,24.0,0.,24.0
1980-11-15 07:06:22.880 ,0,1,0.,24.0,0.,24.0,0.,24.0,0.,24.0
1980-11-15 07:06:46.880 ,0,0,0.,24.0,0.,24.0,1.,24.0,0.,24.0
1980-11-15 07:07:10.880 ,1,1,0.,24.0,0.,24.0,0.,24.0,0.,24.0
1980-11-15 07:07:34.880 ,1,0,0.,24.0,0.,24.0,0.,24.0,0.,24.0
1980-11-15 07:07:58.880 ,2,1,0.,24.0,0.,24.0,0.,24.0,0.,24.0
1980-11-15 07:08:22.880 ,2,0,0.,24.0,0.,24.0,1.,24.0,0.,24.0
1980-11-15 07:08:46.880 ,3,1,0.,24.0,0.,24.0,0.,24.0,0.,24.0
1980-11-15 07:09:10.880 ,3,0,0.,24.0,0.,24.0,1.,24.0,0.,24.0
1980-11-15 07:09:34.880 ,4,1,0.,24.0,0.,24.0,0.,24.0,0.,24.0
1980-11-15 07:09:58.880 ,4,0,0.,24.0,0.,24.0,1.,24.0,0.,24.0
1980-11-15 07:10:22.880 ,5,1,0.,24.0,0.,24.0,0.,24.0,0.,24.0
1980-11-15 07:10:46.880 ,5,0,0.,24.0,0.,24.0,0.,24.0,0.,24.0
1980-11-15 07:11:10.880 ,6,1,0.,24.0,0.,24.0,1.,24.0,0.,24.0
1980-11-15 07:11:34.880 ,6,0,0.,24.0,0.,24.0,0.,24.0,0.,24.0
1980-11-15 07:11:58.880 ,7,1,3.,24.0,0.,24.0,1.,24.0,0.,24.0
1980-11-15 07:12:22.880 ,7,0,10.,24.0,0.,24.0,0.,24.0,0.,24.0
1980-11-15 07:12:46.880 ,7,1,10.,24.0,0.,24.0,0.,24.0,0.,24.0
1980-11-15 07:13:10.880 ,7,0,7.,24.0,0.,24.0,1.,24.0,0.,24.0
1980-11-15 07:13:34.880 ,6,1,7.,24.0,0.,24.0,0.,24.0,0.,24.0
1980-11-15 07:13:58.880 ,6,0,0.,24.0,0.,24.0,0.,24.0,0.,24.0
1980-11-15 07:14:22.890 ,5,1,0.,24.0,0.,24.0,1.,24.0,0.,24.0
1980-11-15 07:14:46.890 ,5,0,0.,24.0,0.,24.0,0.,24.0,0.,24.0
1980-11-15 07:15:10.890 ,4,1,0.,24.0,0.,24.0,1.,24.0,0.,24.0
1980-11-15 07:15:34.890 ,4,0,0.,24.0,0.,24.0,2.,24.0,0.,24.0
1980-11-15 07:15:58.890 ,3,1,0.,24.0,0.,24.0,0.,24.0,0.,24.0
1980-11-15 07:16:22.890 ,3,0,0.,24.0,0.,24.0,1.,24.0,0.,24.0
1980-11-15 07:16:46.890 ,2,1,0.,24.0,0.,24.0,1.,24.0,0.,24.0
1980-11-15 07:17:10.890 ,2,0,0.,24.0,0.,24.0,0.,24.0,0.,24.0
1980-11-15 07:17:34.890 ,1,1,0.,24.0,0.,24.0,1.,24.0,0.,24.0
1980-11-15 07:17:58.890 ,1,0,0.,24.0,0.,24.0,1.,24.0,0.,24.0
1980-11-15 07:18:22.890 ,0,1,0.,24.0,0.,24.0,0.,24.0,0.,24.0
1980-11-15 07:18:46.890 ,0,0,0.,24.0,0.,24.0,1.,24.0,0.,24.0
1980-11-15 07:19:10.890 ,0,1,0.,24.0,0.,24.0,0.,24.0,0.,24.0
1980-11-15 07:19:34.890 ,0,0,0.,24.0,0.,24.0,0.,24.0,0.,24.0
1980-11-15 07:19:58.890 ,1,1,0.,24.0,0.,24.0,0.,24.0,0.,24.0
1980-11-15 07:20:22.890 ,1,0,0.,24.0,0.,24.0,0.,24.0,0.,24.0
1980-11-15 07:20:46.890 ,2,1,0.,24.0,0.,24.0,1.,24.0,0.,24.0
1980-11-15 07:21:10.890 ,2,0,0.,24.0,0.,24.0,0.,24.0,0.,24.0
1980-11-15 07:21:34.890 ,3,1,0.,24.0,0.,24.0,0.,24.0,0.,24.0
1980-11-15 07:21:58.890 ,3,0,0.,24.0,0.,24.0,1.,24.0,0.,24.0
1980-11-15 07:22:22.890 ,4,1,1.,24.0,0.,24.0,1.,24.0,0.,24.0
1980-11-15 07:22:46.890 ,4,0,0.,24.0,0.,24.0,1.,24.0,0.,24.0
1980-11-15 07:23:10.890 ,5,1,0.,24.0,0.,24.0,0.,24.0,0.,24.0
1980-11-15 07:23:34.890 ,5,0,0.,24.0,0.,24.0,0.,24.0,0.,24.0
1980-11-15 07:23:58.890 ,6,1,0.,24.0,0.,24.0,0.,24.0,0.,24.0
1980-11-15 07:24:22.890 ,6,0,0.,24.0,0.,24.0,1.,24.0,0.,24.0
1980-11-15 07:24:46.890 ,7,1,1.,24.0,0.,24.0,0.,24.0,0.,24.0
1980-11-15 07:25:10.890 ,7,0,9.,24.0,0.,24.0,0.,24.0,0.,24.0
1980-11-15 07:25:34.890 ,7,1,14.,24.0,0.,24.0,2.,24.0,0.,24.0
1980-11-15 07:25:58.890 ,7,0,9.,24.0,0.,24.0,0.,24.0,0.,24.0
1980-11-15 07:26:22.890 ,6,1,6.,24.0,0.,24.0,1.,24.0,0.,24.0
1980-11-15 07:26:46.890 ,6,0,0.,24.0,0.,24.0,2.,24.0,0.,24.0
1980-11-15 07:27:10.890 ,5,1,0.,24.0,0.,24.0,0.,24.0,0.,24.0
1980-11-15 07:27:34.890 ,5,0,0.,24.0,0.,24.0,1.,24.0,0.,24.0
1980-11-15 07:27:58.890 ,4,1,0.,24.0,0.,24.0,0.,24.0,0.,24.0
1980-11-15 07:28:22.890 ,4,0,0.,24.0,0.,24.0,0.,24.0,0.,24.0
1980-11-15 07:28:46.890 ,3,1,0.,24.0,0.,24.0,0.,24.0,0.,24.0
1980-11-15 07:29:10.890 ,3,0,0.,24.0,0.,24.0,0.,24.0,0.,24.0
1980-11-15 07:29:34.890 ,2,1,0.,24.0,0.,24.0,1.,24.0,0.,24.0
1980-11-15 07:29:58.890 ,2,0,0.,24.0,0.,24.0,1.,24.0,0.,24.0
1980-11-15 07:30:22.890 ,1,1,0.,24.0,0.,24.0,1.,24.0,0.,24.0
1980-11-15 07:30:46.890 ,1,0,0.,24.0,0.,24.0,0.,24.0,0.,24.0
1980-11-15 07:31:10.890 ,0,1,1.,24.0,0.,24.0,0.,24.0,0.,24.0
1980-11-15 07:31:34.890 ,0,0,0.,24.0,0.,24.0,0.,24.0,0.,24.0
1980-11-15 07:31:58.890 ,0,1,0.,24.0,0.,24.0,1.,24.0,0.,24.0
1980-11-15 07:32:22.890 ,0,0,0.,24.0,0.,24.0,1.,24.0,0.,24.0
1980-11-15 07:35:58.890 ,0,0,0.,24.0,0.,24.0,1.,24.0,0.,24.0
1980-11-15 07:36:22.890 ,0,0,0.,24.0,0.,24.0,0.,24.0,0.,24.0
1980-11-15 07:36:46.890 ,6,1,0.,24.0,0.,24.0,1.,24.0,0.,24.0
1980-11-15 07:37:10.890 ,6,0,0.,24.0,0.,24.0,0.,24.0,0.,24.0
1980-11-15 07:37:34.890 ,7,1,2.,24.0,0.,24.0,0.,24.0,0.,24.0
1980-11-15 07:37:58.890 ,7,0,11.,24.0,0.,24.0,0.,24.0,0.,24.0
1980-11-15 07:38:22.890 ,7,1,7.,24.0,0.,24.0,3.,24.0,0.,24.0
1980-11-15 07:38:46.890 ,7,0,9.,24.0,0.,24.0,2.,24.0,0.,24.0
1980-11-15 07:39:10.890 ,6,1,7.,24.0,0.,24.0,1.,24.0,0.,24.0
1980-11-15 07:39:34.890 ,6,0,0.,24.0,0.,24.0,0.,24.0,0.,24.0
1980-11-15 07:39:58.890 ,5,1,0.,24.0,0.,24.0,2.,24.0,0.,24.0
1980-11-15 07:40:22.890 ,5,0,0.,24.0,0.,24.0,1.,24.0,0.,24.0
1980-11-15 07:40:46.890 ,4,1,0.,24.0,0.,24.0,0.,24.0,0.,24.0
1980-11-15 07:41:10.890 ,4,0,0.,24.0,0.,24.0,0.,24.0,0.,24.0
1980-11-15 07:41:34.890 ,3,1,0.,24.0,0.,24.0,0.,24.0,0.,24.0
1980-11-15 07:41:58.890 ,3,0,0.,24.0,0.,24.0,0.,24.0,0.,24.0
1980-11-15 07:42:22.890 ,2,1,0.,24.0,0.,24.0,1.,24.0,0.,24.0
1980-11-15 07:42:46.890 ,2,0,0.,24.0,0.,24.0,1.,24.0,0.,24.0
1980-11-15 07:43:10.890 ,1,1,0.,24.0,0.,24.0,0.,24.0,0.,24.0
1980-11-15 07:43:34.890 ,1,0,0.,24.0,0.,24.0,0.,24.0,0.,24.0
1980-11-15 07:43:58.890 ,0,1,0.,24.0,0.,24.0,1.,24.0,0.,24.0
1980-11-15 07:44:22.890 ,0,0,1.,24.0,0.,24.0,0.,24.0,0.,24.0
1980-11-15 07:44:46.890 ,0,1,0.,24.0,0.,24.0,0.,24.0,0.,24.0
1980-11-15 07:45:10.890 ,0,0,0.,24.0,0.,24.0,0.,24.0,0.,24.0
1980-11-15 07:45:34.890 ,1,1,0.,24.0,0.,24.0,0.,24.0,0.,24.0
1980-11-15 07:45:58.890 ,1,0,0.,24.0,0.,24.0,2.,24.0,0.,24.0
1980-11-15 07:46:22.890 ,2,1,0.,24.0,0.,24.0,0.,24.0,0.,24.0
1980-11-15 07:46:46.890 ,2,0,0.,24.0,0.,24.0,0.,24.0,0.,24.0
1980-11-15 07:47:58.890 ,0,0,0.,24.0,0.,24.0,0.,24.0,0.,24.0
1980-11-15 07:48:22.890 ,0,0,0.,24.0,0.,24.0,1.,24.0,0.,24.0
1980-11-15 07:48:46.890 ,5,1,0.,24.0,0.,24.0,0.,24.0,0.,24.0
1980-11-15 07:49:10.890 ,5,0,0.,24.0,0.,24.0,0.,24.0,0.,24.0
1980-11-15 07:49:34.890 ,6,1,0.,24.0,0.,24.0,0.,24.0,0.,24.0
1980-11-15 07:49:58.890 ,6,0,0.,24.0,0.,24.0,0.,24.0,0.,24.0
1980-11-15 07:50:22.890 ,7,1,1.,24.0,0.,24.0,0.,24.0,0.,24.0
1980-11-15 07:50:46.890 ,7,0,11.,24.0,0.,24.0,0.,24.0,0.,24.0
1980-11-15 07:51:10.890 ,7,1,6.,24.0,0.,24.0,0.,24.0,0.,24.0
1980-11-15 07:51:34.890 ,7,0,9.,24.0,0.,24.0,1.,24.0,0.,24.0
1980-11-15 07:51:58.890 ,6,1,6.,24.0,0.,24.0,0.,24.0,0.,24.0
1980-11-15 07:52:22.890 ,6,0,0.,24.0,0.,24.0,3.,24.0,0.,24.0
1980-11-15 07:52:46.890 ,5,1,0.,24.0,0.,24.0,0.,24.0,0.,24.0
1980-11-15 07:53:10.890 ,5,0,0.,24.0,0.,24.0,0.,24.0,0.,24.0
1980-11-15 07:53:34.890 ,4,1,0.,24.0,0.,24.0,0.,24.0,0.,24.0
1980-11-15 07:53:58.890 ,4,0,0.,24.0,0.,24.0,0.,24.0,0.,24.0
1980-11-15 07:54:22.890 ,3,1,0.,24.0,1.,24.0,0.,24.0,0.,24.0
1980-11-15 07:54:46.890 ,3,0,0.,24.0,0.,24.0,0.,24.0,0.,24.0
1980-11-15 07:55:10.890 ,2,1,0.,24.0,0.,24.0,0.,24.0,0.,24.0
1980-11-15 07:55:34.890 ,2,0,0.,24.0,0.,24.0,0.,24.0,0.,24.0
1980-11-15 07:55:58.890 ,1,1,0.,24.0,0.,24.0,0.,24.0,0.,24.0
1980-11-15 07:56:22.890 ,1,0,0.,24.0,0.,24.0,0.,24.0,0.,24.0
1980-11-15 07:35:58.890 ,0,0,0.,24.0,0.,24.0,1.,24.0,0.,24.0
1980-11-15 07:36:22.890 ,0,0,0.,24.0,0.,24.0,0.,24.0,0.,24.0
1980-11-15 07:36:46.890 ,6,1,0.,24.0,0.,24.0,1.,24.0,0.,24.0
1980-11-15 07:37:10.890 ,6,0,0.,24.0,0.,24.0,0.,24.0,0.,24.0
1980-11-15 07:37:34.890 ,7,1,2.,24.0,0.,24.0,0.,24.0,0.,24.0
1980-11-15 07:37:58.890 ,7,0,11.,24.0,0.,24.0,0.,24.0,0.,24.0
1980-11-15 07:38:22.890 ,7,1,7.,24.0,0.,24.0,3.,24.0,0.,24.0
1980-11-15 07:38:46.890 ,7,0,9.,24.0,0.,24.0,2.,24.0,0.,24.0
1980-11-15 07:39:10.890 ,6,1,7.,24.0,0.,24.0,1.,24.0,0.,24.0
1980-11-15 07:39:34.890 ,6,0,0.,24.0,0.,24.0,0.,24.0,0.,24.0
1980-11-15 07:39:58.890 ,5,1,0.,24.0,0.,24.0,2.,24.0,0.,24.0
1980-11-15 07:40:22.890 ,5,0,0.,24.0,0.,24.0,1.,24.0,0.,24.0
1980-11-15 07:40:46.890 ,4,1,0.,24.0,0.,24.0,0.,24.0,0.,24.0
1980-11-15 07:41:10.890 ,4,0,0.,24.0,0.,24.0,0.,24.0,0.,24.0
1980-11-15 07:41:34.890 ,3,1,0.,24.0,0.,24.0,0.,24.0,0.,24.0
1980-11-15 07:41:58.890 ,3,0,0.,24.0,0.,24.0,0.,24.0,0.,24.0
1980-11-15 07:42:22.890 ,2,1,0.,24.0,0.,24.0,1.,24.0,0.,24.0
1980-11-15 07:42:46.890 ,2,0,0.,24.0,0.,24.0,1.,24.0,0.,24.0
1980-11-15 07:43:10.890 ,1,1,0.,24.0,0.,24.0,0.,24.0,0.,24.0
1980-11-15 07:43:34.890 ,1,0,0.,24.0,0.,24.0,0.,24.0,0.,24.0
1980-11-15 07:43:58.890 ,0,1,0.,24.0,0.,24.0,1.,24.0,0.,24.0
1980-11-15 07:44:22.890 ,0,0,1.,24.0,0.,24.0,0.,24.0,0.,24.0
1980-11-15 07:44:46.890 ,0,1,0.,24.0,0.,24.0,0.,24.0,0.,24.0
1980-11-15 07:45:10.890 ,0,0,0.,24.0,0.,24.0,0.,24.0,0.,24.0
1980-11-15 07:45:34.890 ,1,1,0.,24.0,0.,24.0,0.,24.0,0.,24.0
1980-11-15 07:45:58.890 ,1,0,0.,24.0,0.,24.0,2.,24.0,0.,24.0
1980-11-15 07:46:22.890 ,2,1,0.,24.0,0.,24.0,0.,24.0,0.,24.0
1980-11-15 07:46:46.890 ,2,0,0.,24.0,0.,24.0,0.,24.0,0.,24.0
1980-11-15 07:47:10.890 ,3,1,0.,24.0,0.,24.0,1.,24.0,0.,24.0
1980-11-15 07:47:34.890 ,3,0,0.,24.0,0.,24.0,1.,24.0,0.,24.0
1980-11-15 07:47:58.890 ,4,1,0.,24.0,0.,24.0,0.,24.0,0.,24.0
1980-11-15 07:48:22.890 ,4,0,0.,24.0,0.,24.0,1.,24.0,0.,24.0
1980-11-15 07:48:46.890 ,5,1,0.,24.0,0.,24.0,0.,24.0,0.,24.0
1980-11-15 07:49:10.890 ,5,0,0.,24.0,0.,24.0,0.,24.0,0.,24.0
1980-11-15 07:49:34.890 ,6,1,0.,24.0,0.,24.0,0.,24.0,0.,24.0
1980-11-15 07:49:58.890 ,6,0,0.,24.0,0.,24.0,0.,24.0,0.,24.0
1980-11-15 07:50:22.890 ,7,1,1.,24.0,0.,24.0,0.,24.0,0.,24.0
1980-11-15 07:50:46.890 ,7,0,11.,24.0,0.,24.0,0.,24.0,0.,24.0
1980-11-15 07:51:10.890 ,7,1,6.,24.0,0.,24.0,0.,24.0,0.,24.0
1980-11-15 07:51:34.890 ,7,0,9.,24.0,0.,24.0,1.,24.0,0.,24.0
1980-11-15 07:51:58.890 ,6,1,6.,24.0,0.,24.0,0.,24.0,0.,24.0
1980-11-15 07:52:22.890 ,6,0,0.,24.0,0.,24.0,3.,24.0,0.,24.0
1980-11-15 07:52:46.890 ,5,1,0.,24.0,0.,24.0,0.,24.0,0.,24.0
1980-11-15 07:53:10.890 ,5,0,0.,24.0,0.,24.0,0.,24.0,0.,24.0
1980-11-15 07:53:34.890 ,4,1,0.,24.0,0.,24.0,0.,24.0,0.,24.0
1980-11-15 07:53:58.890 ,4,0,0.,24.0,0.,24.0,0.,24.0,0.,24.0
1980-11-15 07:54:22.890 ,3,1,0.,24.0,1.,24.0,0.,24.0,0.,24.0
1980-11-15 07:54:46.890 ,3,0,0.,24.0,0.,24.0,0.,24.0,0.,24.0
1980-11-15 07:55:10.890 ,2,1,0.,24.0,0.,24.0,0.,24.0,0.,24.0
1980-11-15 07:55:34.890 ,2,0,0.,24.0,0.,24.0,0.,24.0,0.,24.0
1980-11-15 07:55:58.890 ,1,1,0.,24.0,0.,24.0,0.,24.0,0.,24.0
1980-11-15 07:56:22.890 ,1,0,0.,24.0,0.,24.0,0.,24.0,0.,24.0
1980-11-15 07:56:46.890 ,0,1,0.,24.0,0.,24.0,0.,24.0,0.,24.0
1980-11-15 07:57:10.890 ,0,0,0.,24.0,0.,24.0,0.,24.0,0.,24.0
1980-11-15 07:57:34.890 ,0,1,0.,24.0,0.,24.0,0.,24.0,0.,24.0
1980-11-15 07:57:58.890 ,0,0,0.,24.0,0.,24.0,1.,24.0,0.,24.0
1980-11-15 07:58:22.890 ,1,1,0.,24.0,0.,24.0,0.,24.0,0.,24.0
1980-11-15 07:58:46.890 ,1,0,0.,24.0,0.,24.0,0.,24.0,0.,24.0
1980-11-15 07:59:10.890 ,2,1,0.,24.0,0.,24.0,0.,24.0,0.,24.0
1980-11-15 07:59:34.890 ,2,0,0.,24.0,0.,24.0,2.,24.0,0.,24.0
1980-11-15 07:59:58.890 ,3,1,0.,24.0,0.,24.0,0.,24.0,0.,24.0
1980-11-15 08:00:22.890 ,3,0,0.,24.0,0.,24.0,0.,24.0,0.,24.0
1980-11-15 08:00:46.890 ,4,1,0.,24.0,0.,24.0,1.,24.0,0.,24.0
1980-11-15 08:01:10.890 ,4,0,0.,24.0,0.,24.0,2.,24.0,0.,24.0
1980-11-15 08:01:34.890 ,5,1,0.,24.0,0.,24.0,0.,24.0,0.,24.0
1980-11-15 08:01:58.890 ,5,0,0.,24.0,0.,24.0,1.,24.0,0.,24.0
1980-11-15 08:02:22.890 ,6,1,0.,24.0,0.,24.0,0.,24.0,0.,24.0
1980-11-15 08:02:46.890 ,6,0,0.,24.0,0.,24.0,0.,24.0,0.,24.0
1980-11-15 08:03:10.890 ,7,1,0.,24.0,0.,24.0,1.,24.0,0.,24.0
1980-11-15 08:03:34.890 ,7,0,11.,24.0,0.,24.0,0.,24.0,0.,24.0
1980-11-15 08:03:58.890 ,7,1,12.,24.0,0.,24.0,0.,24.0,0.,24.0
1980-11-15 08:04:22.890 ,7,0,7.,24.0,0.,24.0,0.,24.0,0.,24.0
1980-11-15 08:04:46.890 ,6,1,6.,24.0,0.,24.0,0.,24.0,0.,24.0
1980-11-15 08:05:10.890 ,6,0,0.,24.0,0.,24.0,0.,24.0,0.,24.0
1980-11-15 08:05:34.890 ,5,1,0.,24.0,0.,24.0,0.,24.0,0.,24.0
1980-11-15 08:05:58.890 ,5,0,0.,24.0,0.,24.0,0.,24.0,0.,24.0
1980-11-15 08:06:22.890 ,4,1,0.,24.0,0.,24.0,0.,24.0,0.,24.0
1980-11-15 08:06:46.890 ,4,0,0.,24.0,0.,24.0,0.,24.0,0.,24.0
1980-11-15 08:07:10.890 ,3,1,0.,24.0,0.,24.0,0.,24.0,0.,24.0
1980-11-15 08:07:34.890 ,3,0,0.,24.0,0.,24.0,0.,24.0,0.,24.0
1980-11-15 08:07:58.890 ,2,1,0.,24.0,0.,24.0,1.,24.0,0.,24.0
1980-11-15 08:08:22.890 ,2,0,0.,24.0,0.,24.0,1.,24.0,0.,24.0
1980-11-15 08:08:46.890 ,1,1,0.,24.0,0.,24.0,0.,24.0,0.,24.0
1980-11-15 08:09:10.890 ,1,0,0.,24.0,0.,24.0,0.,24.0,0.,24.0
1980-11-15 08:09:34.890 ,0,1,1.,24.0,0.,24.0,0.,24.0,0.,24.0
1980-11-15 08:09:58.890 ,0,0,0.,24.0,0.,24.0,0.,24.0,0.,24.0
1980-11-15 08:10:22.890 ,0,1,0.,24.0,0.,24.0,1.,24.0,0.,24.0
1980-11-15 08:10:46.890 ,0,0,0.,24.0,0.,24.0,0.,24.0,0.,24.0
1980-11-15 08:11:10.890 ,1,1,0.,24.0,0.,24.0,0.,24.0,0.,24.0
1980-11-15 08:11:34.890 ,1,0,0.,24.0,0.,24.0,0.,24.0,0.,24.0
1980-11-15 08:11:58.890 ,2,1,0.,24.0,0.,24.0,1.,24.0,0.,24.0
1980-11-15 08:12:22.890 ,2,0,0.,24.0,0.,24.0,1.,24.0,0.,24.0
1980-11-15 08:12:46.890 ,3,1,0.,24.0,0.,24.0,0.,24.0,0.,24.0
1980-11-15 08:13:10.890 ,3,0,0.,24.0,0.,24.0,0.,24.0,0.,24.0
1980-11-15 08:13:34.890 ,4,1,0.,24.0,0.,24.0,1.,24.0,0.,24.0
1980-11-15 08:13:58.890 ,4,0,0.,24.0,0.,24.0,0.,24.0,0.,24.0
1980-11-15 08:14:22.890 ,5,1,0.,24.0,0.,24.0,0.,24.0,0.,24.0
1980-11-15 08:14:46.890 ,5,0,0.,24.0,0.,24.0,0.,24.0,0.,24.0
1980-11-15 08:15:10.890 ,6,1,1.,24.0,0.,24.0,1.,24.0,0.,24.0
1980-11-15 08:15:34.890 ,6,0,0.,24.0,1.,24.0,0.,24.0,0.,24.0
1980-11-15 08:15:58.890 ,7,1,4.,24.0,0.,24.0,1.,24.0,0.,24.0
1980-11-15 08:16:22.890 ,7,0,8.,24.0,0.,24.0,1.,24.0,0.,24.0
1980-11-15 08:16:46.890 ,7,1,9.,24.0,0.,24.0,0.,24.0,0.,24.0
1980-11-15 08:17:10.890 ,7,0,9.,24.0,0.,24.0,0.,24.0,0.,24.0
1980-11-15 08:17:34.890 ,6,1,7.,24.0,0.,24.0,1.,24.0,0.,24.0
1980-11-15 08:17:58.890 ,6,0,0.,24.0,0.,24.0,0.,24.0,0.,24.0
1980-11-15 08:18:22.890 ,5,1,0.,24.0,0.,24.0,0.,24.0,0.,24.0
1980-11-15 08:18:46.890 ,5,0,0.,24.0,0.,24.0,0.,24.0,0.,24.0